sat.trackr.live / text

‹ back to catalog

BISONSAT

NORAD 40974 · 2015-058L

PAYLOAD ACTIVE UNKNOWN

§ Identity

Operator
Country
US
Launch date
2015-10-08
Launch site
AFWTR
Launch vehicle
Mass (kg)
RCS (m²)

Purposes: tech_demo

External: N2YO · Heavens-Above · Gunter

§ Orbital elements

Epoch: 2026-05-25T00:13:56.224992Z

Period
95.01 min
Inclination
64.7596°
Eccentricity
0.0078309
Mean motion
15.15663476 rev/d
Perigee alt
465.0 km
Apogee alt
573.0 km
Semi-major
6,897.1 km
B*
4.7951e-4
RAAN
248.5465°
Arg perigee
56.9380°
Mean anomaly
303.9233°
Rev number
11,210

§ Raw data

BISONSAT1 40974U 15058L   26145.00967853  .00009708  00000+0  47951-3 0  99912 40974  64.7596 248.5465 0078309  56.9380 303.9233 15.15663476112107

JSON: /api/v1/satellites/40974 · /tle

For live sub-satellite position, see the globe view (requires WebGL).

§ Visibility from observer

Set your observer location to see the next 7 days of passes ≥ 10°. The values pass through the URL so the page stays shareable.

No JS? Fill the form by hand. The geolocation button needs JavaScript.

§ Radio — SatNOGS DB

ModeDescriptionDownlinkUplink
FSK Telemetry 437.376 MHz

1 transmitter · refreshed weekly from db.satnogs.org